Location: Makanda
(37.6176°N, 89.2090°W)
Time: 05:16:14
(UTC+00:00)

COSMO-SKYMED 1 - Pass Details

Date: 23 September 2019
Orbit: 621 x 623 km, 97.9° (Epoch: 23 October)

Event Time Altitude Azimuth Distance (km) Brightness Sun altitude
Rises 11:07:35 0° 164° (SSE) 2,888 6.1 -8.3°
Reaches altitude 10° 11:09:46 10° 163° (SSE) 1,986 5.3 -7.9°
Maximum altitude 11:14:05 81° 77° (ENE) 636 2.7 -7.0°
Drops below altitude 10° 11:18:26 10° 350° (N) 2,000 5.1 -6.1°
Sets 11:20:38 0° 349° (N) 2,911 5.9 -5.7°
